CAPE
543 771 964 931 1076 1010 818 762 1757 2044 2829 3269 2625 2565 3310 3453 3643 1945 1845 2506 1737 1639 1535 1246 1637 2010 2396 2751 2560 2949 2926 2613 2171
0 237 824 1040 1037 1140 1195 1201 1844 2522 3020 3455 3331 2620 3615 3608 3384 3267 2229 3138 3234 2047 2801 1535 1650 1858 2359 2411 2643 2919 3017 2631 2401
0 0 322 853 1099 1145 1390 1328 1556 2230 2959 3462 3412 3046 3080 2769 3198 3385 3410 3557 3535 3421 3307 2958 2022 2129 2101 2434 2642 2945 3145 2748 2583
0 0 141 836 1001 1074 1272 1372 1347 1685 2292 2927 2835 2933 3084 3264 3139 2788 3189 2976 3599 3705 3763 3824 3255 2983 2433 2222 2688 3187 3314 3216 2556
0 0 3 364 650 935 1046 1213 1308 1406 1614 1856 2077 2674 3259 3331 3424 3332 3080 3317 3440 3649 3719 4009 4022 3452 3142 2733 2586 3320 3272 3074 2476
0 0 0 0 19 172 583 1020 1928 1278 1338 1520 1752 2476 2201 2954 3307 3330 3503 3635 3565 3591 3723 3917 3577 3867 3981 3532 3127 3233 3200 3035 2841
0 0 0 0 34 92 127 800 2249 2478 1595 1340 1583 1819 2110 2888 3343 3405 3398 3554 3573 3562 3758 3901 4008 4007 4187 3940 3597 3317 3056 2845 2920
0 0 0 0 137 278 678 942 2183 2657 2155 2144 1855 2512 2616 2843 3304 3560 3626 3687 3705 3769 3854 3836 3920 4000 4063 3934 3570 2623 3369 3465 3369
0 0 0 0 5 152 801 1105 1459 1953 2208 1996 2228 2795 2777 3091 3403 3742 3674 3727 3827 3898 3868 3961 4017 3946 3928 3778 2983 1773 1131 2574 3397
0 0 0 0 0 174 560 1265 1385 1928 2240 1820 2429 2791 3058 3322 3535 3696 3784 3602 3754 3947 3967 3776 3996 3922 3915 3880 3837 1751 586 979 3262
0 0 0 0 0 0 280 516 541 1424 1432 2426 2618 2918 3079 3460 3640 3655 3760 3894 3909 4044 3914 3844 4063 4026 3988 3966 3847 2227 307 365 2628
0 0 0 0 0 0 0 0 203 916 1481 1711 2072 2957 3155 3357 3539 3748 3876 3963 3975 4053 3596 3619 3381 3484 4004 4265 3733 1725 191 117 2310
0 0 0 0 0 0 0 0 23 767 1532 2274 2927 3140 3221 3439 3719 3894 3956 3941 3920 3714 3635 2997 2815 2895 3602 3221 3645 2982 231 0 1792
0 0 0 0 0 0 127 25 450 1903 1737 2354 3111 2412 2435 3345 3926 4160 4076 4208 4001 3790 3507 3418 3601 3367 3664 3515 3425 3527 1345 0 1003
194 50 51 0 0 0 0 507 1335 3010 3196 3130 3273 3384 2756 3681 3983 3114 2788 4039 3576 3707 3785 3819 3744 3679 2699 2541 2461 2008 1330 0 136
698 627 345 0 221 22 368 863 1587 2219 3718 3620 3055 3122 3793 3979 3786 3250 3609 3915 3655 3242 3551 3103 3119 2991 2919 2640 2389 1557 34 0 0
1127 1066 425 702 350 425 1380 1972 2251 2346 2396 3211 3296 3230 3215 3445 3601 3856 3448 3148 3238 3185 3092 3205 2949 2809 2558 1757 990 2819 2772 703 0
1364 994 2416 1816 1885 2521 2878 2997 2988 2586 2637 2730 2672 2957 3103 3298 3352 3397 3577 2514 2169 3387 3741 2786 3301 3324 3228 2856 3374 3339 749 239 1
2163 2017 2137 2482 2645 3462 4038 3687 2910 3476 2881 2840 3103 3308 3261 3199 3245 3467 3478 2547 895 1 0 3 13 1755 2992 1714 632 1 1 1 1
348 873 897 1233 1541 1674 2014 2117 2164 2302 2966 3417 3253 2836 2567 2332 2168 1978 2101 2450 2708 1556 1 1 2 2 0 0 0 2 0 2 2
CIN
-10 -12 -38 -36 -51 -65 -68 -93 -61 -61 -37 -43 -69 -65 -23 -14 -3 -32 -25 -2 -4 -2 -0 -0 -0 -0 -0 -0 -0 -0 -0 -0 -1
-0 -40 -22 -48 -50 -57 -67 -80 -71 -77 -69 -68 -59 -99 -39 -27 -30 -21 -26 -3 -4 -10 -0 -0 -0 -0 -0 -2 -1 -0 -0 -0 -4
-0 -0 -17 -32 -44 -66 -77 -91 -107 -103 -98 -105 -132 -110 -85 -87 -55 -40 -33 -9 -11 -7 -0 -2 -0 -0 -2 -2 -1 -0 -0 -0 -0
-0 -0 -26 -19 -49 -86 -102 -108 -116 -141 -136 -136 -147 -116 -106 -73 -71 -80 -63 -49 -23 -23 -16 -0 -8 -0 -4 -4 -0 -0 -0 -0 -0
-0 -0 -4 -27 -27 -60 -80 -113 -132 -154 -191 -185 -203 -170 -138 -125 -99 -78 -74 -73 -52 -42 -31 -15 -7 -4 -3 -3 -0 -0 -0 -1 -2
-0 -0 -0 -0 -39 -54 -96 -121 -154 -163 -198 -191 -180 -199 -215 -154 -127 -105 -86 -81 -90 -68 -54 -34 -32 -7 -0 -2 -1 -0 -1 -6 -4
-0 -0 -0 -0 -161 -125 -123 -140 -135 -184 -195 -212 -204 -208 -218 -193 -169 -156 -135 -113 -114 -100 -75 -56 -40 -24 -10 -8 -9 -5 -13 -15 -7
-0 -0 -0 -20 -136 -107 -139 -159 -175 -220 -222 -214 -202 -196 -197 -239 -238 -187 -150 -126 -110 -102 -82 -78 -71 -49 -26 -24 -16 -53 -14 -3 -11
-0 -0 -0 -0 -136 -143 -123 -174 -232 -268 -293 -281 -252 -216 -255 -262 -245 -196 -199 -165 -123 -101 -97 -79 -69 -58 -46 -38 -47 -154 -267 -114 -35
-0 -0 -0 -0 -0 -156 -154 -142 -209 -238 -294 -345 -303 -282 -272 -261 -238 -223 -210 -200 -152 -140 -125 -98 -84 -79 -66 -54 -50 -211 -490 -389 -51
-0 -0 -0 -0 -0 -0 -135 -125 -142 -257 -301 -333 -336 -326 -291 -271 -243 -237 -213 -188 -198 -180 -154 -144 -113 -103 -87 -63 -74 -239 -744 -671 -126
-0 -0 -0 -0 -0 -0 -0 -0 -175 -216 -291 -340 -382 -345 -345 -312 -272 -256 -233 -234 -247 -189 -173 -149 -134 -88 -55 -39 -47 -276 -784 -835 -136
-0 -0 -0 -0 -0 -0 -0 -0 -286 -233 -278 -293 -329 -357 -363 -331 -291 -266 -270 -258 -204 -203 -191 -226 -197 -169 -99 -109 -39 -62 -740 -0 -82
-0 -0 -0 -0 -0 -0 -228 -308 -301 -160 -266 -286 -331 -367 -379 -317 -270 -251 -248 -196 -189 -184 -186 -143 -145 -165 -98 -107 -89 -99 -475 -0 -312
-447 -329 -494 -0 -0 -0 -68 -400 -293 -200 -263 -317 -317 -320 -364 -301 -290 -355 -346 -204 -211 -169 -151 -134 -158 -193 -313 -377 -394 -499 -742 -0 -317
-325 -334 -375 -0 -373 -543 -444 -425 -390 -279 -258 -291 -350 -377 -328 -298 -304 -347 -252 -213 -215 -236 -189 -212 -220 -217 -255 -277 -240 -376 -423 -0 -0
-210 -214 -306 -240 -392 -380 -292 -354 -369 -374 -371 -338 -351 -380 -372 -332 -318 -268 -293 -289 -255 -245 -239 -220 -219 -220 -244 -282 -262 -175 -222 -618 -0
-189 -213 -164 -224 -218 -225 -289 -321 -324 -359 -407 -424 -399 -357 -333 -321 -311 -323 -260 -461 -457 -202 -138 -230 -117 -94 -81 -92 -79 -146 -672 -786 -0
-122 -170 -178 -165 -197 -136 -105 -199 -357 -274 -362 -359 -305 -291 -279 -273 -234 -273 -242 -380 -761 -0 -0 -0 -342 -461 -135 -378 -78 -0 -0 -0 -0
-351 -296 -342 -306 -297 -313 -319 -352 -401 -411 -327 -267 -256 -270 -367 -394 -424 -452 -413 -315 -231 -436 -0 -0 -0 -0 -0 -0 -0 -0 -0 -0 -0
Wind_Speed
20 22 22 24 26 25 24 26 24 23 21 21 22 22 21 18 19 15 14 14 13 11 11 10 10 12 13 13 11 10 9 8 8
20 21 22 24 26 27 25 24 23 24 23 22 22 23 19 19 18 19 16 16 13 13 11 11 11 13 14 14 13 12 11 9 9
19 20 22 23 23 26 25 26 25 25 24 23 25 23 20 18 19 19 18 15 16 15 13 14 13 14 15 14 13 13 13 11 11
21 20 20 22 22 23 24 23 24 25 24 24 23 22 21 19 19 21 19 18 18 17 16 14 16 14 15 15 14 14 14 13 12
20 18 18 18 19 20 21 23 24 25 25 25 24 21 20 21 20 20 20 20 20 18 18 17 16 16 16 16 16 15 16 17 15
10 13 13 14 15 17 19 21 21 23 24 26 24 22 23 21 21 21 21 21 20 20 19 18 19 17 17 17 17 17 18 17 17
5 7 10 13 15 17 17 17 18 21 23 24 24 24 23 22 22 23 21 20 20 20 19 19 19 18 18 19 18 18 19 18 17
3 4 6 10 13 13 13 15 16 19 21 19 21 21 22 23 21 19 19 19 19 19 19 19 19 19 19 19 19 17 19 19 18
13 14 13 9 12 13 13 15 18 18 19 20 19 19 22 20 19 19 20 19 19 19 19 19 19 20 20 20 18 21 21 21 18
14 15 13 11 11 12 12 14 15 18 18 18 19 19 18 18 18 19 19 18 18 20 20 18 20 20 21 21 21 18 22 23 18
21 21 18 13 13 11 13 13 14 14 16 17 19 19 19 18 18 18 17 18 20 20 18 20 19 19 20 19 18 16 20 22 23
19 21 20 16 16 13 12 11 12 13 16 18 19 19 21 20 19 19 18 20 21 16 16 16 16 16 17 18 16 11 13 17 21
17 19 17 18 19 18 15 15 13 15 18 17 19 21 21 18 18 18 20 18 16 14 15 16 14 17 16 16 15 11 14 16 14
17 15 16 15 16 15 15 11 12 14 16 19 22 17 17 16 16 17 16 14 14 14 15 13 15 15 14 14 16 17 20 23 16
22 21 19 19 14 13 12 10 12 13 16 17 12 14 15 15 15 14 14 14 14 14 14 14 15 15 14 16 24 26 23 27 25
20 21 16 16 12 10 9 11 12 13 13 11 12 13 14 14 14 15 12 14 14 13 15 14 15 15 14 14 14 9 18 24 26
17 16 16 12 12 10 9 8 10 11 11 11 12 13 13 13 14 14 14 12 12 13 13 13 13 13 14 14 12 8 6 8 10
16 13 8 9 8 6 6 5 6 8 11 13 14 13 12 13 12 13 12 6 4 10 11 8 10 11 11 11 10 5 10 12 9
4 5 7 5 5 8 9 8 7 3 8 10 11 11 10 10 9 11 8 8 5 15 13 13 11 7 5 2 8 10 9 10 12
5 7 6 6 7 6 8 9 9 7 5 7 7 6 7 7 6 7 8 7 7 5 8 17 20 16 13 7 12 11 13 13 14
Wind_Direction
203 202 205 203 200 202 201 203 200 202 197 201 201 203 206 206 210 215 218 221 236 223 231 221 214 202 215 216 217 215 203 204 212
211 200 201 205 204 204 203 202 202 200 199 198 201 204 203 206 207 214 215 222 212 230 227 229 213 209 213 214 213 212 207 225 204
209 206 201 205 207 206 205 203 202 200 202 201 200 202 204 205 208 210 213 213 218 216 223 220 221 206 213 213 213 214 211 215 210
215 210 200 203 207 207 207 209 203 204 204 205 202 203 205 207 207 209 210 213 212 215 213 214 213 206 211 214 214 211 211 223 218
219 214 210 207 208 206 205 207 211 205 206 208 207 205 203 203 204 206 209 210 212 209 211 210 209 209 206 210 213 211 212 214 215
225 230 229 230 218 209 210 210 208 212 206 209 207 204 205 208 207 206 210 208 209 209 208 207 209 209 207 208 211 212 214 216 217
196 207 228 228 224 223 222 212 205 206 208 209 205 202 207 208 207 208 207 208 208 208 208 208 207 208 208 209 210 214 218 217 221
207 201 241 238 228 219 214 214 209 204 208 204 206 200 204 208 209 210 208 210 209 210 209 210 209 207 209 211 212 214 214 217 215
279 278 273 264 246 235 218 214 210 206 207 206 206 201 206 206 205 205 207 208 207 209 212 212 212 213 211 213 217 213 203 210 215
280 285 283 267 242 240 244 219 211 210 203 199 203 212 207 207 206 207 207 207 208 212 212 211 215 215 215 216 220 208 197 199 219
272 275 279 256 252 238 229 233 225 211 204 203 203 204 208 207 205 207 205 207 212 212 210 214 215 216 219 222 222 205 200 193 214
258 258 262 260 258 268 269 256 231 217 208 201 203 206 208 206 203 204 202 209 212 209 213 217 222 225 225 232 239 206 199 195 217
266 258 264 274 279 278 262 245 237 204 204 200 205 206 208 203 203 204 207 209 209 208 212 217 220 222 225 229 240 213 190 199 235
288 293 295 287 282 266 261 241 221 207 201 206 212 208 207 205 205 206 208 206 206 204 208 212 209 214 220 208 215 220 188 182 200
287 279 280 280 276 259 248 228 208 202 203 215 200 207 204 201 200 202 202 206 202 205 205 208 210 216 211 222 198 211 202 157 198
280 275 272 273 271 257 229 209 210 209 217 202 196 199 199 196 195 199 209 191 198 199 202 216 211 220 226 240 237 218 147 157 191
275 271 262 255 250 231 222 212 208 213 198 187 181 186 191 194 192 190 195 190 194 204 204 209 223 225 228 242 240 230 171 189 199
279 265 272 253 228 206 190 196 187 179 173 176 180 184 183 189 187 183 182 176 223 210 215 218 220 227 239 249 247 215 157 168 176
320 249 234 197 169 179 145 96 66 119 174 175 174 167 175 180 170 166 167 168 130 52 28 38 31 31 319 43 47 119 136 156 164
58 70 76 90 94 86 88 87 77 70 79 125 158 153 134 141 136 151 158 165 181 133 45 54 45 32 49 101 144 142 161 162 153